Location: Deer Path Park
(40.5570°N, 74.8450°W)
Time: 17:50:03
(UTC-04:00)

Iridium 49 - Visible Passes

Search period start: 26 July 2016 00:00
Search period end: 05 August 2016 00:00
Orbit: 776 x 779 km, 86.4° (Epoch: 26 July)

Date Brightness Start Highest point End Pass type
(mag) Time Alt. Az. Time Alt. Az. Time Alt. Az.
28 Jul 9.4 05:13:10 10° E 05:14:44 11° ENE 05:16:17 10° ENE visible
31 Jul 8.9 05:11:23 10° ESE 05:14:35 17° E 05:17:49 10° NE visible
03 Aug 8.6 05:10:25 10° SE 05:14:31 24° E 05:18:37 10° NNE visible
04 Aug 9.0 04:39:01 10° ESE 04:41:19 13° ENE 04:43:38 10° NE visible
